[[{"header":{"parameterUnit":"m.s-1","parameterCategory":1,"la1":30.2991,"la2":30.254,"lo1":-89.0895,"lo2":-89.0444,"dy":0.0017,"dx":0.0017,"nx":28,"ny":28,"refTime":"2025-03-28T21:00:00:Z","depth":0,"parameterNumber":2,"parameterNumberName":"U-component_of_WINDS"},"data":[0,0,0,0,0,0,0,0,0,0,0,0,0,0,0,0,0,0,0,0,0,0,0,0,0,0,0,0,0,0,0,0,0,0,0,0,0,0,0,0,0,0,0,0,0,0,0,0,0,0,0,0,0,0,0,0,0,0,-7.1527,-7.1528,0,-7.164,-7.1642,-7.1643,-7.1607,-7.1605,-7.1603,-7.16,-7.1709,-7.1714,-7.1719,0,0,0,0,0,0,0,0,0,0,0,0,0,-7.1272,-7.1277,-7.1527,-7.1528,-7.153,-7.164,-7.1642,-7.1643,-7.1608,-7.1605,-7.1602,-7.1599,-7.1707,-7.1713,-7.1719,0,0,0,0,0,0,0,0,0,0,0,0,0,-7.1384,-7.1279,-7.1526,-7.1525,-7.1526,-7.164,-7.1642,-7.1644,-7.1608,-7.1605,-7.1601,-7.1598,-7.1705,-7.1713,-7.172,-7.1839,0,0,-7.1744,-7.1747,0,0,0,0,0,0,0,0,-7.1377,-7.1393,-7.1524,-7.1526,-7.1527,-7.1606,-7.1592,-7.1709,-7.1609,-7.1577,-7.16,-7.1596,-7.1677,-7.1687,-7.1716,-7.1844,-7.1849,-7.1744,-7.1749,-7.1752,-7.1754,0,0,0,0,0,0,0,-7.137,-7.1388,-7.1571,-7.1526,-7.1528,-7.1517,-7.1529,-7.1614,-7.1645,-7.158,-7.1577,-7.1592,-7.1677,-7.1708,-7.1718,-7.1851,-7.1744,-7.1751,-7.1756,-7.1759,-7.2081,-7.2085,0,0,0,0,0,0,-7.1362,-7.1382,-7.1568,-7.1575,-7.1442,-7.1525,-7.1538,-7.1584,-7.1645,-7.165,-7.1595,-7.159,-7.1697,-7.1709,-7.1722,-7.1863,-7.1752,-7.1759,-7.1764,-7.2077,-7.2082,-7.2086,0,0,0,0,0,0,-7.1357,-7.1379,-7.1563,-7.1478,-7.1501,-7.1533,-7.1585,-7.1588,-7.162,-7.1656,-7.1661,-7.1621,-7.1695,-7.1711,-7.1811,-7.1866,-7.1763,-7.177,-7.2073,-7.2079,-7.2084,-7.2148,0,0,0,0,0,0,-7.135,-7.1377,-7.1424,-7.1479,-7.1505,-7.1652,-7.1589,-7.1593,-7.1634,-7.1628,-7.1682,-7.1687,-7.1693,-7.1799,-7.1818,-7.1875,-7.1776,-7.2068,-7.2075,-7.2082,-7.2141,-7.2155,-7.2167,0,0,0,0,0,-7.1341,-7.1436,-7.1427,-7.1449,-7.1565,-7.1655,-7.167,-7.1677,-7.1639,-7.1685,-7.1708,-7.1686,-7.1859,-7.181,-7.1831,-7.1891,-7.2064,-7.2073,-7.2082,-7.2135,-7.2152,-7.2167,0,0,0,0,0,0,-7.1383,-7.1443,-7.1433,-7.155,-7.1598,-7.1649,-7.1707,-7.1695,-7.1753,-7.1745,-7.1749,-7.1762,-7.1863,-7.1888,-7.1833,-7.2009,-7.1955,-7.1969,-7.1988,-7.2005,-7.2018,-7.2008,-7.1782,0,0,0,0,0,-7.1407,-7.1478,-7.1525,-7.1623,-7.1649,-7.1674,-7.1714,-7.1716,-7.1765,-7.1784,-7.1815,-7.1861,-7.1926,-7.1968,-7.2029,-7.2146,-7.2155,-7.2198,-7.2211,-7.2222,-7.2232,-7.2293,-7.2312,-7.2116,-7.2116,-7.2115,0,0,-7.1454,-7.1496,-7.154,-7.1633,-7.167,-7.1741,-7.1691,-7.1768,-7.182,-7.1795,-7.189,-7.1915,-7.1967,-7.2076,-7.2125,-7.2099,-7.2289,-7.2233,-7.2242,-7.2246,-7.2304,-7.2323,-7.2339,-7.2122,-7.2121,-7.212,0,0,-7.1576,-7.1617,-7.1702,-7.1742,-7.1801,-7.1818,-7.1839,-7.1893,-7.1909,-7.2007,-7.1989,-7.205,-7.2162,-7.2199,-7.2233,-7.2374,-7.2353,-7.2394,-7.2461,-7.2521,-7.2537,-7.255,-7.2597,-7.2614,-7.2405,-7.2405,-7.2405,0,-7.1627,-7.1735,-7.1747,-7.1826,-7.1866,-7.1852,-7.1936,-7.1974,-7.2049,-7.2076,-7.2047,-7.2188,-7.2222,-7.2338,-7.2372,-7.2402,-7.2423,-7.2385,-7.2534,-7.2548,-7.2561,-7.2605,-7.2623,-7.2409,-7.2408,-7.2408,-7.2408,0,-7.1793,-7.1869,-7.1931,-7.2006,-7.2055,-7.2136,-7.2158,-7.2205,-7.2204,-7.2224,-7.2322,-7.2364,-7.2433,-7.2462,-7.246,-7.2578,-7.2559,-7.2533,-7.2478,-7.2583,-7.2625,-7.2642,-7.2415,-7.2413,-7.2412,-7.2411,0,0,-7.194,-7.2024,-7.2046,-7.208,-7.2146,-7.2203,-7.2285,-7.2355,-7.2394,-7.2448,-7.2513,-7.261,-7.2586,-7.2625,-7.2628,-7.2682,-7.2786,-7.2648,-7.2649,-7.2669,-7.2915,-7.2931,-7.2951,-7.2777,-7.278,-7.2783,-7.2909,0,-7.2064,-7.2209,-7.2223,-7.2351,-7.242,-7.2409,-7.2479,-7.2525,-7.2547,-7.2607,-7.263,-7.2697,-7.2663,-7.2685,-7.2738,-7.2762,-7.2835,-7.2754,-7.2833,-7.2836,-7.2816,-7.2973,-7.299,-7.3107,-7.2926,-7.2929,-7.2931,0,-7.2228,-7.2289,-7.2425,-7.2482,-7.2511,-7.2574,-7.264,-7.2699,-7.2751,-7.2763,-7.2808,-7.2805,-7.2886,-7.2833,-7.2943,-7.2888,-7.2922,-7.2939,-7.2944,-7.2947,-7.2886,-7.2976,-7.3145,-7.3161,-7.2957,-7.2955,-7.2953,0,-7.2316,-7.2433,-7.2529,-7.2559,-7.2629,-7.2673,-7.2704,-7.2753,-7.2795,-7.2853,-7.2879,-7.2945,-7.298,-7.303,-7.3044,-7.3005,-7.3153,-7.3101,-7.3161,-7.3161,-7.3188,-7.3185,-7.336,-7.3219,-7.3218,-7.3218,-7.3218,0,-7.2451,-7.2533,-7.257,-7.2628,-7.272,-7.2736,-7.2826,-7.2854,-7.2899,-7.296,-7.2956,-7.3013,-7.3031,-7.3091,-7.3103,-7.319,-7.3207,-7.3216,-7.3217,-7.3214,-7.3212,-7.3232,-7.3222,-7.3223,-7.3222,-7.3221,-7.322,0,-7.2562,-7.2591,-7.2694,-7.2754,-7.277,-7.2835,-7.2884,-7.294,-7.2962,-7.3041,-7.306,-7.3094,-7.3165,-7.3186,-7.327,-7.3278,-7.338,-7.3376,-7.3362,-7.3361,-7.3418,-7.3411,-7.3608,-7.3633,-7.3479,-7.3481,-7.3482,0,-7.2644,-7.2708,-7.2775,-7.2818,-7.2851,-7.292,-7.2963,-7.2982,-7.3027,-7.3094,-7.314,-7.3212,-7.3269,-7.3382,-7.3413,-7.3477,-7.3472,-7.3537,-7.3481,-7.3475,-7.3468,-7.3462,-7.3467,-7.3545,-7.3547,-7.3548,-7.3549,0,-7.2784,-7.2796,-7.2861,-7.2931,-7.2984,-7.3039,-7.3092,-7.3127,-7.3153,-7.3204,-7.3278,-7.3323,-7.3411,-7.348,-7.3547,-7.3575,-7.3566,-7.3568,-7.3584,-7.3579,-7.3566,-7.357,-7.3386,-7.3562,-7.356,-7.356,-7.3559,-7.3558,-7.288,-7.2936,-7.2993,-7.3064,-7.3108,-7.3158,-7.3213,-7.3244,-7.3307,-7.3382,-7.339,-7.3469,-7.352,-7.3609,-7.3642,-7.3702,-7.3682,-7.3707,-7.3713,-7.3717,-7.372,-7.3562,-7.3715,-7.3714,-7.3714,-7.3714,-7.3714,0,-7.3017,-7.3054,-7.3121,-7.3196,-7.3253,-7.3245,-7.3304,-7.335,-7.3421,-7.3471,-7.3529,-7.3614,-7.3682,-7.372,-7.3787,-7.3828,-7.3825,-7.3845,-7.3839,-7.3845,-7.3736,-7.3713,-7.3846,-7.3846,-7.3846,-7.3846,-7.3846,-7.3846,-7.3094,-7.3187,-7.3206,-7.332,-7.3356,-7.3436,-7.347,-7.3516,-7.3556,-7.3652,-7.3709,-7.3735,-7.378,-7.3851,-7.3913,-7.3922,-7.3945,-7.3966,-7.3972,-7.3867,-7.3853,-7.384,-7.3818,-7.3972,-7.3972,-7.4076,-7.4077,-7.4078]},{"header":{"parameterUnit":"m.s-1","parameterCategory":1,"la1":30.2991,"la2":30.254,"lo1":-89.0895,"lo2":-89.0444,"dy":0.0017,"dx":0.0017,"nx":28,"ny":28,"refTime":"2025-03-28T21:00:00:Z","depth":0,"parameterNumber":3,"parameterNumberName":"V-component_of_WINDS"},"data":[0,0,0,0,0,0,0,0,0,0,0,0,0,0,0,0,0,0,0,0,0,0,0,0,0,0,0,0,0,0,0,0,0,0,0,0,0,0,0,0,0,0,0,0,0,0,0,0,0,0,0,0,0,0,0,0,0,0,5.4051,5.4052,0,5.4109,5.411,5.4111,5.4123,5.4122,5.4122,5.4121,5.4176,5.4178,5.418,0,0,0,0,0,0,0,0,0,0,0,0,0,5.3947,5.3949,5.4051,5.4052,5.4053,5.4109,5.411,5.4111,5.4123,5.4122,5.4122,5.4121,5.4175,5.4178,5.418,0,0,0,0,0,0,0,0,0,0,0,0,0,5.3997,5.395,5.4051,5.4066,5.4068,5.4109,5.411,5.4111,5.4123,5.4122,5.4122,5.4121,5.4175,5.4177,5.418,5.421,0,0,5.4189,5.419,0,0,0,0,0,0,0,0,5.3994,5.4001,5.4063,5.4065,5.4067,5.4108,5.4093,5.4144,5.4123,5.4102,5.4121,5.4121,5.4154,5.4158,5.417,5.4212,5.4215,5.4189,5.419,5.4192,5.4192,0,0,0,0,0,0,0,5.3991,5.3999,5.4074,5.4064,5.4066,5.4068,5.4074,5.4103,5.413,5.4104,5.4105,5.4112,5.4155,5.4168,5.4172,5.4216,5.4189,5.4191,5.4193,5.4194,5.4286,5.4287,0,0,0,0,0,0,5.3986,5.3996,5.4072,5.4076,5.4029,5.407,5.4078,5.4096,5.413,5.4135,5.4112,5.4112,5.4163,5.4168,5.4174,5.4212,5.4192,5.4194,5.4196,5.4285,5.4286,5.4287,0,0,0,0,0,0,5.3983,5.3992,5.407,5.4036,5.4046,5.4073,5.4093,5.4097,5.411,5.4137,5.4141,5.412,5.4163,5.417,5.4201,5.4214,5.4195,5.4198,5.4284,5.4286,5.4287,5.4287,0,0,0,0,0,0,5.398,5.3991,5.4004,5.4036,5.4048,5.4098,5.4094,5.4099,5.4115,5.4116,5.4146,5.415,5.4163,5.4197,5.4204,5.4217,5.42,5.4283,5.4285,5.4286,5.4286,5.4288,5.429,0,0,0,0,0,5.3976,5.4,5.4004,5.4014,5.4064,5.4099,5.4105,5.4121,5.4116,5.4129,5.4146,5.4149,5.4211,5.42,5.4208,5.4222,5.4283,5.4285,5.4286,5.4286,5.4288,5.429,0,0,0,0,0,0,5.3966,5.4005,5.401,5.4045,5.4069,5.4101,5.4117,5.4123,5.4147,5.4146,5.4163,5.417,5.42,5.4214,5.4202,5.4253,5.4247,5.425,5.4243,5.4246,5.4248,5.4244,5.4202,0,0,0,0,0,5.3969,5.3995,5.4026,5.4055,5.4066,5.409,5.4105,5.4115,5.414,5.4149,5.4169,5.4191,5.4216,5.4232,5.4256,5.4288,5.4295,5.4302,5.4304,5.4305,5.4308,5.4327,5.4331,5.4293,5.4293,5.4293,0,0,5.3973,5.3997,5.4012,5.4053,5.4073,5.4099,5.4098,5.4124,5.4144,5.4153,5.4185,5.42,5.4226,5.4259,5.4274,5.4271,5.432,5.4308,5.4309,5.4311,5.433,5.4333,5.4336,5.4294,5.4294,5.4294,0,0,5.3994,5.4015,5.4042,5.4062,5.4092,5.4108,5.4114,5.4145,5.4156,5.4189,5.4197,5.4219,5.4261,5.428,5.4294,5.4324,5.4328,5.4331,5.4341,5.436,5.4363,5.4365,5.4376,5.438,5.4334,5.4334,5.4334,0,5.3995,5.4036,5.4054,5.4081,5.4099,5.4111,5.4137,5.4155,5.4191,5.4202,5.4199,5.4253,5.4271,5.4309,5.4317,5.4328,5.4336,5.4328,5.4361,5.4364,5.4367,5.4377,5.4382,5.4334,5.4334,5.4334,5.4334,0,5.4036,5.4064,5.4081,5.4118,5.4138,5.4164,5.4186,5.4203,5.4212,5.4227,5.426,5.4283,5.4312,5.4322,5.433,5.4361,5.4359,5.4358,5.4351,5.437,5.4381,5.4385,5.4334,5.4334,5.4334,5.4334,0,0,5.4052,5.41,5.4106,5.4123,5.4158,5.4179,5.4206,5.4237,5.4252,5.4276,5.4299,5.4335,5.4335,5.4352,5.4362,5.4378,5.4401,5.4376,5.4377,5.438,5.4438,5.4438,5.4443,5.4404,5.4405,5.4406,5.4436,0,5.4078,5.4129,5.4146,5.4188,5.4214,5.4225,5.4249,5.4272,5.4288,5.4311,5.4327,5.4353,5.4351,5.4361,5.4378,5.4395,5.4413,5.4393,5.4425,5.4426,5.4419,5.4448,5.4449,5.4476,5.444,5.444,5.4441,0,5.4115,5.4142,5.4187,5.422,5.4231,5.4253,5.4283,5.4305,5.4331,5.4341,5.4361,5.437,5.4398,5.439,5.4429,5.4415,5.4429,5.4439,5.444,5.4444,5.4435,5.4453,5.4485,5.4489,5.4447,5.4447,5.4446,0,5.4123,5.4171,5.4204,5.4219,5.4257,5.4272,5.4288,5.4315,5.4332,5.4358,5.4369,5.4397,5.4412,5.4433,5.4449,5.4442,5.4486,5.4479,5.4495,5.4494,5.4504,5.4503,5.4539,5.4512,5.4512,5.4512,5.4512,0,5.4151,5.4178,5.4209,5.4229,5.426,5.4279,5.4308,5.4325,5.4348,5.4372,5.4382,5.4403,5.4424,5.4447,5.446,5.449,5.4496,5.4505,5.4508,5.4504,5.4503,5.4513,5.4512,5.4513,5.4513,5.4513,5.4512,0,5.4165,5.4187,5.4225,5.4259,5.4268,5.4289,5.4318,5.4338,5.4354,5.4383,5.4391,5.4415,5.4444,5.4462,5.4498,5.4506,5.4539,5.4541,5.4531,5.4533,5.4547,5.4546,5.4591,5.4598,5.4566,5.4567,5.4567,0,5.4182,5.4203,5.4241,5.4258,5.4275,5.4303,5.4321,5.4341,5.436,5.4392,5.4408,5.4437,5.4462,5.4507,5.4527,5.4554,5.4557,5.4572,5.4562,5.4557,5.4558,5.4557,5.4559,5.4573,5.4573,5.4574,5.4574,0,5.4209,5.4219,5.4247,5.4278,5.4301,5.4326,5.4351,5.4364,5.4388,5.4408,5.4438,5.4458,5.4495,5.4524,5.4554,5.4569,5.4575,5.4577,5.4582,5.4579,5.4572,5.4576,5.4536,5.4576,5.4575,5.4575,5.4575,5.4575,5.4226,5.4246,5.4276,5.4306,5.4327,5.4351,5.4372,5.4391,5.4417,5.4451,5.446,5.4492,5.4518,5.4558,5.4574,5.4598,5.4597,5.4604,5.4606,5.4607,5.4608,5.4568,5.4604,5.4604,5.4604,5.4604,5.4604,0,5.4254,5.4275,5.4302,5.4338,5.4362,5.4368,5.4396,5.4415,5.4443,5.4468,5.4492,5.4527,5.4556,5.4579,5.4608,5.4623,5.4626,5.463,5.4629,5.4632,5.4608,5.4601,5.4626,5.4626,5.4626,5.4626,5.4626,5.4626,5.4272,5.4307,5.4321,5.4365,5.4385,5.4418,5.4433,5.4455,5.4475,5.4514,5.4538,5.4553,5.4577,5.4608,5.4634,5.464,5.4651,5.4654,5.466,5.4636,5.4634,5.4632,5.4625,5.4655,5.4656,5.4683,5.4683,5.4683]}]]